Location: Cosy Dell
(34.2789°N, 117.4537°W)
Time: 12:02:05
(UTC+00:00)

Gblst 52 Del rocket - Pass Details

Date: 14 July 2020
Orbit: 805 x 1366 km, 51.5° (Epoch: 08 August)

Event Time Altitude Azimuth Distance (km) Brightness Sun altitude
Rises 04:45:17 0° 313° (NW) 3,350 9.1 -18.1°
Reaches altitude 10° 04:47:40 10° 313° (NW) 2,449 7.9 -18.4°
Maximum altitude 04:53:22 87° 44° (NE) 899 4.3 -19.3°
Enters shadow 04:56:10 35° 132° (SE) 1,462 4.9 -19.7°
